FW4078 Weather Reports


Display with metric or nautical units.
time (UTC)temp
F
wind
direction
speed
MPH
gust
MPH
rain 1hr
in
rain 24hr
in
rain mn
in
humidity
%
barometer
mb
20240228044525 92 360 7.0 15.0 0.00 0.00 0.00 74 1006.7
20240228043046 92 295 6.0 16.0 0.00 0.00 0.00 74 1006.9
20240228041537 92 290 6.0 10.0 0.00 0.00 0.00 77 1007.0
20240228040049 91 336 6.0 12.0 0.00 0.00 0.00 74 1007.0
20240228034503 92 297 5.0 12.0 0.00 0.00 0.00 75 1007.3
20240228033117 91 326 4.0 10.0 0.00 0.00 0.00 74 1007.7
20240228031513 91 349 7.0 13.0 0.00 0.00 0.00 74 1008.0
20240228030037 91 285 5.0 10.0 0.00 0.00 0.00 76 1008.0
20240228024557 90 332 4.0 9.0 0.00 0.00 0.00 76 1008.2
20240228023121 91 27 5.0 13.0 0.00 0.00 0.00 74 1008.7
20240228021503 91 25 8.0 14.0 0.00 0.00 0.00 74 1008.8
20240228020020 89 329 4.0 13.0 0.00 0.00 0.00 77 1009.0
20240228014535 89 331 6.0 12.0 0.00 0.00 0.00 77 1008.9
20240228013053 89 288 6.0 10.0 0.00 0.00 0.00 78 1008.9
20240228011547 88 318 4.0 11.0 0.00 0.00 0.00 81 1008.8
20240228010012 88 23 8.0 13.0 0.00 0.00 0.00 79 1008.8
20240228004554 88 27 8.0 13.0 0.00 0.00 0.00 79 1008.8
20240228003058 88 326 5.0 11.0 0.00 0.00 0.00 80 1008.7
20240228001605 87 287 3.0 12.0 0.00 0.00 0.00 82 1008.7
20240228000016 87 345 4.0 13.0 0.00 0.00 0.00 81 1008.7
20240227234538 86 4 6.0 11.0 0.00 0.00 0.00 83 1008.6
20240227233046 86 335 5.0 12.0 0.00 0.00 0.00 82 1008.6
20240227231532 86 352 5.0 13.0 0.00 0.00 0.00 83 1008.7
20240227230044 84 321 7.0 11.0 0.00 0.00 0.00 87 1008.8
20240227224553 82 311 4.0 9.0 0.00 0.00 0.00 88 1008.6
20240227223116 82 333 4.0 9.0 0.00 0.00 0.00 88 1008.2
20240227221509 82 333 4.0 10.0 0.00 0.00 0.00 88 1008.0
20240227220031 82 24 6.0 10.0 0.00 0.00 0.00 89 1007.9
20240227214556 82 308 5.0 10.0 0.00 0.00 0.00 89 1007.8
20240227213026 82 348 3.0 13.0 0.00 0.00 0.00 89 1007.6
20240227211519 81 351 2.0 10.0 0.00 0.00 0.00 89 1007.5
20240227210036 81 349 4.0 8.0 0.00 0.00 0.00 89 1007.4
20240227204555 81 320 3.0 8.0 0.00 0.00 0.00 89 1007.2
20240227203114 81 331 3.0 8.0 0.00 0.00 0.00 88 1007.1
20240227201524 82 322 2.0 7.0 0.00 0.00 0.00 88 1007.1
20240227200044 82 314 3.0 6.0 0.00 0.00 0.00 88 1007.1
20240227194554 82 339 3.0 9.0 0.00 0.00 0.00 88 1006.9
20240227193108 82 338 5.0 8.0 0.00 0.00 0.00 88 1006.9
20240227191530 81 330 3.0 9.0 0.00 0.01 0.00 88 1006.8
20240227190024 81 330 2.0 7.0 0.00 0.01 0.00 88 1006.7
20240227184559 81 331 1.0 6.0 0.00 0.01 0.00 88 1006.5
20240227183110 81 335 1.0 5.0 0.00 0.01 0.00 88 1006.5
20240227181600 81 323 1.0 5.0 0.00 0.13 0.00 88 1006.7
20240227181504 81 323 1.0 5.0 0.00 0.13 0.00 88 1006.7
20240227180019 82 316 2.0 5.0 0.00 0.13 0.00 88 1006.6
20240227174541 82 326 2.0 6.0 0.00 0.13 0.00 88 1006.8
20240227173102 82 331 3.0 8.0 0.00 0.13 0.00 88 1006.8
20240227171504 82 332 2.0 7.0 0.00 1.02 0.00 88 1006.9
20240227170024 82 336 2.0 8.0 0.00 1.02 0.00 88 1006.9
20240227164540 82 311 1.0 5.0 0.00 1.02 0.00 87 1007.0
20240227163056 82 311 1.0 4.0 0.00 1.02 0.00 87 1007.2
20240227161552 82 303 1.0 5.0 0.00 1.36 0.00 87 1007.1
20240227160008 82 301 0.0 0.0 0.00 1.36 0.00 87 1007.7
20240227154534 82 301 0.0 4.0 0.00 1.36 0.00 86 1007.7
20240227153052 82 298 1.0 4.0 0.00 1.36 0.00 86 1007.9
20240227151544 82 299 2.0 6.0 0.00 1.37 0.00 86 1008.0
20240227150002 83 315 3.0 7.0 0.00 1.37 0.00 86 1008.2
20240227144526 83 303 2.0 8.0 0.00 1.37 0.00 86 1008.3
20240227143055 83 324 4.0 7.0 0.00 1.37 0.00 85 1008.1
20240227141541 83 298 2.0 7.0 0.00 1.37 1.37 85 1008.4
20240227140013 83 302 2.0 9.0 0.00 1.37 1.37 85 1008.2
20240227134531 83 289 1.0 7.0 0.00 1.37 1.37 86 1008.1
20240227133047 83 289 3.0 7.0 0.00 1.37 1.37 85 1008.2
20240227131535 83 306 3.0 8.0 0.00 1.37 1.37 86 1008.0
20240227130101 83 303 2.0 8.0 0.00 1.37 1.37 86 1007.9
20240227124528 83 283 0.0 6.0 0.00 1.37 1.37 86 1007.7
20240227123044 83 283 2.0 7.0 0.00 1.37 1.37 86 1007.6
20240227121543 83 281 1.0 7.0 0.00 1.37 1.37 86 1007.5
20240227120012 83 291 3.0 7.0 0.00 1.37 1.37 86 1007.3
20240227114537 83 301 0.0 7.0 0.00 1.37 1.37 85 1007.0
20240227113054 83 312 1.0 6.0 0.00 1.37 1.37 86 1006.9
20240227111545 83 301 0.0 4.0 0.00 1.37 1.37 86 1007.1
20240227110007 83 304 0.0 5.0 0.00 1.37 1.37 85 1007.0
20240227104534 83 326 1.0 8.0 0.00 1.37 1.37 84 1006.8
20240227103057 83 343 5.0 9.0 0.00 1.37 1.37 85 1006.6
20240227101556 83 318 2.0 7.0 0.00 1.37 1.37 85 1006.7
20240227100018 84 333 5.0 8.0 0.00 1.37 1.37 85 1006.5
20240227094544 84 307 4.0 10.0 0.00 1.37 1.37 84 1006.0
20240227093105 85 320 2.0 7.0 0.00 1.37 1.37 83 1005.8
20240227091501 85 270 0.0 8.0 0.00 1.37 1.37 83 1005.6
20240227090035 85 320 2.0 12.0 0.00 1.37 1.37 83 1005.7
20240227084546 86 333 0.0 12.0 0.00 1.37 1.37 84 1005.6
20240227083116 86 292 1.0 12.0 0.00 1.37 1.37 83 1005.6
20240227081503 88 279 4.0 12.0 0.00 1.37 1.37 79 1005.3
20240227080025 89 296 6.0 12.0 0.00 1.37 1.37 77 1005.1
20240227074551 91 325 6.0 11.0 0.00 1.37 1.37 76 1005.0
20240227073113 91 326 5.0 12.0 0.00 1.37 1.37 76 1005.0
20240227071509 90 317 6.0 12.0 0.00 1.37 1.37 77 1004.8
20240227070045 91 322 5.0 10.0 0.00 1.37 1.37 75 1004.8
20240227064549 91 298 4.0 10.0 0.00 1.37 1.37 76 1004.8
20240227063106 91 291 4.0 12.0 0.00 1.37 1.37 76 1004.8
20240227061504 92 310 5.0 11.0 0.00 1.37 1.37 75 1004.9
20240227060030 91 310 6.0 14.0 0.00 1.37 1.37 74 1004.9
20240227054541 92 308 5.0 11.0 0.00 1.37 1.37 74 1004.9
20240227053041 91 293 5.0 11.0 0.00 1.37 1.37 75 1005.4
20240227051539 91 269 4.0 11.0 0.00 1.37 1.37 78 1005.6
20240227050049 91 318 4.0 14.0 0.00 1.37 1.37 77 1005.7